Juneau, WI

9:48 PM CDT on October 19, 2017 (GMT -0500)
Dodge County

Weather History for KUNU - May, 2013

Change the Weather History Date:

Monday, May 13, 2013

  Actual Average Record
Temperature  
Mean Temperature 45 °F -  
Max Temperature 59 °F 63 °F 88 °F (1977)
Min Temperature 31 °F 45 °F 30 °F (1997)
Degree Days  
Heating Degree Days 20    
Moisture  
Dew Point 28 °F    
Average Humidity 58    
Maximum Humidity 100    
Minimum Humidity 21    
Precipitation  
Precipitation 0.00 in - - ()
Sea Level Pressure  
Sea Level Pressure 30.10 in    
Wind  
Wind Speed 5 mph (SSE)    
Max Wind Speed 17 mph    
Max Gust Speed 16 mph    
Visibility 10 miles    
Events      
Averages and records for this station are not official NWS values.
T = Trace of Precipitation, MM = Missing Value Source: NWS Daily Summary

Daily Weather History Graph

Daily Weather History Graph

Search for Another Location

Airport or City:

Trip Planner

Search our weather history database for the weather conditions in past years. The results will help you decide how hot, cold, wet, or windy it might be!

Date:

Astronomy

May. 13, 2013 Rise Set
Actual Time 5:32 AM CDT 8:10 PM CDT
Civil Twilight 4:59 AM CDT 8:43 PM CDT
Nautical Twilight 4:18 AM CDT 9:24 PM CDT
Astronomical Twilight 3:31 AM CDT 10:12 PM CDT
Moon 8:17 AM CDT (5/13) 11:19 PM CDT (5/13)
Length of Visible Light 15h 44m
Length of Day
14h 38m
Waxing Crescent, 12% of the Moon is Illuminated
May 13
Waxing Crescent
May 17
First Quarter
May 24
Full
May 31
Last Quarter
Jun 8
New

Hourly Weather History & Observations

Time (CDT) Temp. Windchill Dew Point Humidity Pressure Visibility Wind Dir Wind Speed Gust Speed Precip Events Conditions
12:15 AM 35.6 °F 29.9 °F 32.0 °F 87% 30.13 in 10.0 mi ENE 6.9 mph - N/A   Clear
12:35 AM 35.1 °F 28.6 °F 31.8 °F 88% 30.13 in 10.0 mi ENE 8.1 mph - N/A   Clear
12:55 AM 34.7 °F 28.8 °F 31.1 °F 87% 30.13 in 10.0 mi East 6.9 mph - N/A   Clear
1:15 AM 33.8 °F 28.6 °F 31.5 °F 91% 30.14 in 10.0 mi East 5.8 mph - N/A   Clear
1:35 AM 33.4 °F 29.1 °F 31.6 °F 93% 30.14 in 10.0 mi East 4.6 mph - N/A   Clear
1:55 AM 33.3 °F 27.9 °F 31.8 °F 94% 30.14 in 10.0 mi East 5.8 mph - N/A   Clear
2:15 AM 33.8 °F 29.6 °F 32.0 °F 93% 30.13 in 10.0 mi ESE 4.6 mph - N/A   Clear
2:35 AM 33.3 °F 28.9 °F 32.0 °F 95% 30.13 in 10.0 mi East 4.6 mph - N/A   Clear
2:55 AM 33.3 °F - 32.0 °F 95% 30.13 in 10.0 mi Calm Calm - N/A   Clear
3:15 AM 32.9 °F 29.8 °F 31.8 °F 96% 30.13 in 10.0 mi ESE 3.5 mph - N/A   Clear
3:35 AM 32.9 °F - 31.8 °F 96% 30.13 in 10.0 mi Calm Calm - N/A   Clear
3:55 AM 32.9 °F - 32.2 °F 97% 30.12 in 10.0 mi Calm Calm - N/A   Clear
4:15 AM 33.4 °F - 32.9 °F 98% 30.12 in 10.0 mi Calm Calm - N/A   Clear
4:35 AM 32.9 °F - 31.5 °F 94% 30.13 in 10.0 mi Calm Calm - N/A   Clear
4:55 AM 32.0 °F - 31.5 °F 98% 30.13 in 10.0 mi Calm Calm - N/A   Clear
5:15 AM 32.0 °F - 31.6 °F 99% 30.13 in 10.0 mi Calm Calm - N/A   Clear
5:35 AM 31.5 °F - 31.1 °F 99% 30.14 in 7.0 mi Calm Calm - N/A   Clear
5:55 AM 31.1 °F - 31.1 °F 100% 30.14 in 7.0 mi Calm Calm - N/A   Clear
6:15 AM 32.0 °F - 32.0 °F 100% 30.15 in 10.0 mi Calm Calm - N/A   Clear
6:35 AM 32.2 °F - 32.2 °F 100% 30.16 in 10.0 mi Calm Calm - N/A   Clear
6:55 AM 34.3 °F - 34.3 °F 100% 30.16 in 10.0 mi Calm Calm - N/A   Clear
7:15 AM 36.0 °F - 34.5 °F 94% 30.17 in 10.0 mi Calm Calm - N/A   Clear
7:35 AM 37.2 °F - 33.3 °F 86% 30.17 in 10.0 mi Calm Calm - N/A   Clear
7:55 AM 38.3 °F - 32.2 °F 79% 30.18 in 10.0 mi Calm Calm - N/A   Clear
8:15 AM 40.5 °F - 32.0 °F 72% 30.18 in 10.0 mi Calm Calm - N/A   Clear
8:35 AM 41.9 °F 40.0 °F 31.5 °F 66% 30.19 in 10.0 mi SW 3.5 mph - N/A   Clear
8:55 AM 43.0 °F - 31.6 °F 64% 30.19 in 10.0 mi Calm Calm - N/A   Clear
9:15 AM 44.6 °F - 30.2 °F 57% 30.18 in 10.0 mi Calm Calm - N/A   Clear
9:35 AM 45.5 °F - 21.2 °F 38% 30.18 in 10.0 mi Calm Calm - N/A   Clear
9:55 AM 46.4 °F - 18.3 °F 33% 30.18 in 10.0 mi Calm Calm - N/A   Clear
10:15 AM 47.3 °F - 21.6 °F 36% 30.18 in 10.0 mi Calm Calm - N/A   Clear
10:35 AM 48.6 °F - 21.6 °F 35% 30.18 in 10.0 mi SW 5.8 mph - N/A   Clear
10:55 AM 48.9 °F - 20.8 °F 33% 30.18 in 10.0 mi West 3.5 mph - N/A   Clear
11:15 AM 50.0 °F - 23.5 °F 36% 30.18 in 10.0 mi South 4.6 mph - N/A   Clear
11:35 AM 50.7 °F - 20.8 °F 31% 30.17 in 10.0 mi WNW 5.8 mph - N/A   Clear
11:55 AM 51.6 °F - 21.6 °F 31% 30.16 in 10.0 mi Calm Calm - N/A   Clear
12:15 PM 52.5 °F - 22.3 °F 31% 30.16 in 10.0 mi South 5.8 mph - N/A   Clear
12:35 PM 52.5 °F - 21.6 °F 30% 30.15 in 10.0 mi WNW 3.5 mph - N/A   Clear
12:55 PM 53.2 °F - 21.6 °F 29% 30.14 in 10.0 mi Calm Calm - N/A   Clear
1:15 PM 54.1 °F - 23.4 °F 30% 30.14 in 10.0 mi WSW 6.9 mph - N/A   Clear
1:35 PM 55.0 °F - 22.3 °F 28% 30.12 in 10.0 mi West 5.8 mph - N/A   Clear
1:55 PM 55.2 °F - 22.5 °F 28% 30.12 in 10.0 mi SW 5.8 mph - N/A   Clear
2:15 PM 55.4 °F - 19.9 °F 25% 30.11 in 10.0 mi ESE 3.5 mph - N/A   Clear
2:35 PM 56.5 °F - 21.4 °F 26% 30.11 in 10.0 mi SSW 5.8 mph - N/A   Clear
3:35 PM 57.7 °F - 22.8 °F 26% 30.08 in 10.0 mi SSW 4.6 mph - N/A   Clear
3:55 PM 57.9 °F - 19.9 °F 23% 30.07 in 10.0 mi SSW 4.6 mph - N/A   Clear
4:15 PM 58.3 °F - 22.3 °F 25% 30.06 in 10.0 mi SSE 5.8 mph - N/A   Clear
4:35 PM 59.0 °F - 20.1 °F 22% 30.06 in 10.0 mi SSW 8.1 mph - N/A   Clear
4:55 PM 59.0 °F - 19.9 °F 22% 30.05 in 10.0 mi South 6.9 mph - N/A   Clear
5:15 PM 59.0 °F - 19.4 °F 22% 30.05 in 10.0 mi SSW 10.4 mph 16.1 mph N/A   Clear
5:35 PM 58.8 °F - 19.0 °F 21% 30.04 in 10.0 mi South 6.9 mph - N/A   Clear
5:55 PM 59.0 °F - 22.1 °F 24% 30.04 in 10.0 mi South 6.9 mph - N/A   Clear
6:35 PM 57.6 °F - 27.7 °F 32% 30.01 in 10.0 mi SE 9.2 mph - N/A   Overcast
7:15 PM 53.1 °F - 31.1 °F 43% 30.00 in 10.0 mi ESE 17.3 mph - N/A   Overcast
7:35 PM 51.1 °F - 32.9 °F 50% 30.01 in 10.0 mi ESE 11.5 mph - N/A   Light Drizzle
7:55 PM 50.9 °F - 30.9 °F 46% 30.02 in 10.0 mi ESE 13.8 mph - N/A   Mostly Cloudy
8:15 PM 50.0 °F - 30.0 °F 46% 30.03 in 10.0 mi ESE 13.8 mph - N/A   Overcast
8:35 PM 48.7 °F - 30.0 °F 48% 30.02 in 10.0 mi ESE 17.3 mph - N/A   Overcast
8:55 PM 48.2 °F - 30.2 °F 50% 30.01 in 10.0 mi ESE 16.1 mph - N/A   Overcast
9:15 PM 47.8 °F - 30.7 °F 52% 30.02 in 10.0 mi SE 16.1 mph - N/A   Overcast
9:35 PM 47.7 °F - 29.8 °F 50% 30.01 in 10.0 mi ESE 13.8 mph - N/A   Overcast
9:55 PM 47.7 °F - 29.5 °F 49% 30.00 in 10.0 mi SE 12.7 mph - N/A   Overcast
10:15 PM 47.7 °F - 28.6 °F 48% 29.98 in 10.0 mi SE 17.3 mph - N/A   Overcast
10:35 PM 47.7 °F - 28.8 °F 48% 29.97 in 10.0 mi SE 17.3 mph - N/A   Overcast
10:55 PM 47.5 °F - 28.9 °F 49% 29.96 in 10.0 mi SE 15.0 mph - N/A   Overcast
11:15 PM 47.5 °F - 29.1 °F 49% 29.95 in 10.0 mi SE 15.0 mph - N/A   Overcast
11:35 PM 47.5 °F - 28.8 °F 48% 29.93 in 10.0 mi SE 16.1 mph - N/A   Mostly Cloudy
11:55 PM 47.8 °F - 28.4 °F 47% 29.92 in 10.0 mi SE 15.0 mph - N/A   Mostly Cloudy